User: anonymous   Login
Location: Unspecified
(0.0000°N, 0.0000°E)
Time: 12:18:58
(UTC+00:00)
Language:

SBIRS GEO 2 (USA 241) - Orbit

View from above orbital plane
View from above orbital plane
View from above satellite
View from above satellite

Ground track
Ground track

The orbit data is extracted from the following two-line orbital elements,

1 39120U 13011A   17097.29406912 0.00000000  00000-0  00000-0 0    01
2 39120   3.7242 322.1053 0004053 124.3066 235.7492  1.00270000    07
Epoch (UTC): 07 April 2017 07:03:27
Eccentricity: 0.0004053
inclination: 3.7242°
perigee height: 35769 km
apogee height: 35804 km
right ascension of ascending node: 322.1053°
argument of perigee: 124.3066°
revolutions per day: 1.00270000
mean anomaly at epoch: 235.7492°
orbit number at epoch: 0

The dashed part of the orbit path shows where the satellite is in the earth's shadow,  

DLR